www.pogodaiklimat.ru

Погода и климат >> Архив погоды >> Турция >> Джиханбейли


ПОГОДА в Джиханбейли

  • Прогноз погоды в Джиханбейли
  • Монитор погоды в Джиханбейли

АРХИВ ПОГОДЫ в Джиханбейли

Время (UTC), дата Ветер
(напр.,м/с)
 
Видим.   Явления Облачность Т
(С)
Тd
(С)
f
(%)
Тe
(С)
Тes
(С)
Комфортность P
(гПа)
Po
(гПа)
Тmin
(С)
Tmax
(С)
R
(мм)
R24
(мм)
S
(см)
13 11.09 СВ 3 20 км 4/4 1000 м
[Cu hum]
+27.6 +6.8 27 +27 +30 жарко 1012.4 906.5
14 11.09 В 3 20 км 3/3 1000 м
[Cu hum]
+26.9 +5.7 26 +26 +28 жарко 1012.1 906.2
15 11.09 В 3
{6}
20 км ясно +26.6 +5.4 26 +26 +27 жарко 1012.4 906.3
16 11.09 СВ 3 20 км ясно +25.2 +5.3 28 +25 +25 комфорт 1012.8 906.3
17 11.09 В 2 20 км ясно +22.7 +3.6 29 +23 +23 комфорт 1013.3 906.7
18 11.09 СВ 1
{6}
20 км ясно +20.1 +3.6 34 +22 +22 комфорт 1013.8 907.2 +28.8
06 12.09 С 4
{6}
20 км ясно +18.7 +8.3 51 +19 +22 1015.5 908.6 +13.1
07 12.09 С 4 20 км ясно +21.6 +8.4 43 +23 +28 комфорт 1015.1 908.6
08 12.09 СВ 3 20 км ясно +23.0 +7.8 38 +24 +35 комфорт 1015.7 908.7
09 12.09 СВ 3
{7}
20 км ясно +24.1 +6.7 33 +24 +36 комфорт 1014.6 908.1
10 12.09 СВ 3 20 км ясно +25.8 +5.8 28 +25 +38 комфорт 1013.9 908.0
11 12.09 С 3 20 км ясно +26.8 +6.1 27 +26 +38 жарко 1013.5 907.6
12 12.09 С 3
{7}
20 км ясно +27.2 +5.9 26 +26 +35 жарко 1013.0 907.0
13 12.09 С 3 20 км ясно +28.0 +4.2 22 +27 +32 жарко 1012.6 906.7
14 12.09 СВ 3 20 км ясно +26.9 +3.9 23 +26 +28 жарко 1012.4 906.2
15 12.09 СВ 4
{8}
20 км ясно +26.1 +3.8 24 +25 +26 комфорт 1012.6 906.3
16 12.09 СВ 3 20 км ясно +24.5 +3.1 25 +24 +24 комфорт 1013.0 906.4
17 12.09 СВ 2 20 км ясно +22.3 +3.3 29 +22 +22 комфорт 1013.3 906.6
18 12.09 СВ 3
{8}
20 км ясно +21.8 +4.2 32 +22 +22 комфорт 1013.2 906.9 +28.5
06 13.09 С 3
{6}
20 км ясно +18.3 +9.4 56 +19 +23 1013.4 907.0 +13.8
07 13.09 С 5 20 км ясно +20.1 +8.7 48 +21 +26 комфорт 1013.4 906.9
08 13.09 С 5 20 км ясно +20.9 +8.1 44 +22 +29 комфорт 1013.4 906.8
09 13.09 С 5
{9}
20 км ясно +22.7 +7.9 39 +24 +31 комфорт 1012.4 906.0
10 13.09 С 5 20 км ясно +24.3 +7.3 34 +25 +32 комфорт 1011.3 905.4
11 13.09 СВ 5 20 км ясно +24.7 +7.2 33 +25 +31 комфорт 1010.9 904.8
12 13.09 СВ 4
{11}
20 км ясно +24.8 +6.4 31 +25 +32 комфорт 1010.1 904.3
13 13.09 СВ 3 20 км ясно +25.5 +5.0 27 +25 +31 комфорт 1009.7 903.8
14 13.09 СВ 3 20 км ясно +26.3 +0.8 19 +25 +27 комфорт 1009.2 903.4
15 13.09 С 2
{8}
20 км 3/3 1200 м
[Cu hum]
+24.9 +4.0 26 +24 +25 комфорт 1009.7 903.5
16 13.09 С 3 20 км 3/3 1000 м
[Cu hum]
+24.0 +4.7 29 +24 +24 комфорт 1009.8 903.4
17 13.09 СЗ 2 20 км ясно +21.2 +4.6 34 +22 +22 комфорт 1010.1 903.5
18 13.09 С 3
{8}
20 км 4/4 1050 м
[Cu med, cong]
+20.7 +5.7 38 +22 +22 комфорт 1010.2 903.9 +26.3
06 14.09 С 5
{10}
20 км 5/3 1050 м
[Cu hum Ac trans]
+17.0 +8.4 57 +16 +18 1012.8 906.0 +14.7
07 14.09 С 6 20 км 5/3 1000 м
[Cu hum Ac trans]
+17.9 +9.0 56 +17 +19 1012.5 905.9
08 14.09 С 6 20 км 4/1 1000 м
[Cu hum Ac trans]
+21.0 +9.5 48 +23 +26 комфорт 1011.9 905.8
09 14.09 С 6
{10}
20 км 5/3 1020 м
[Cu med, cong Ac und]
+22.7 +9.0 42 +24 +27 комфорт 1011.1 905.4
10 14.09 СВ 4 20 км 8/4 1000 м
[Cu med, cong Ac und]
+21.9 +8.7 43 +23 +26 комфорт 1011.4 905.4
11 14.09 СВ 6 20 км в посл. час ливневой дождь 8/4 1000 м
[Cu med, cong Ac und]
+22.6 +8.9 42 +24 +26 комфорт 1010.3 904.4
12 14.09 З 2
{13}
8000 м гроза, ливневой дождь 9/5 800 м
[Cb cap Ac und]
+19.3 +14.6 74 +22 +24 комфорт 1012.3 905.4 0.4
13 14.09 СЗ 4 20 км слаб. ливневой дождь {гроза} 9/5 600 м
[Cu med, cong Ac und]
+17.9 +13.2 74 +18 +19 1011.4 904.1
14 14.09 С 5 20 км в посл. час ливневой дождь 9/5 1000 м
[Cu med, cong Ac und]
+20.9 +11.5 55 +23 +23 комфорт 1010.7 903.9
15 14.09 С 2
{9}
20 км {гроза, ливн. осадки} 9/5 1000 м
[Cu med, cong Ac und]
+21.9 +10.7 49 +24 +24 комфорт 1011.1 904.4
16 14.09 В 1 20 км 9/5 1000 м
[Cu med, cong Ac und]
+19.8 +13.1 65 +23 +23 комфорт 1012.2 904.9
17 14.09 В 2 20 км 9/4 1000 м
[Cu med, cong Ac und]
+18.2 +13.3 73 +19 +19 1013.6 906.0
18 14.09 В 1
{9}
20 км слаб. ливневой дождь {гроза} 9/4 1000 м
[Cu med, cong Ac und]
+16.6 +13.3 81 +18 +18 1014.3 906.6 +24.2 3
06 15.09 С 8
{12}
20 км 4/0
[Ac trans]
+16.5 +3.9 43 +15 +16 1014.7 906.9 +13.2 0.1
07 15.09 С 7 20 км 4/0
[Ac trans]
+17.8 +4.2 40 +17 +19 1015.1 907.3
08 15.09 С 7 20 км 4/0
[Ac trans]
+19.3 +6.0 42 +19 +21 1015.2 907.5
09 15.09 С 7-12
{15}
20 км 3/0
[Ac trans]
+20.9 +7.0 41 +22 +25 комфорт 1014.3 907.1
10 15.09 С 6 20 км 3/0
[Ac trans]
+22.1 +7.0 38 +23 +27 комфорт 1013.7 906.9
11 15.09 С 7 20 км 5/1 1000 м
[Cu hum Ac trans]
+22.6 +6.6 36 +23 +26 комфорт 1013.5 906.8
12 15.09 С 6
{15}
20 км 9/4 1020 м
[Cu med, cong Ac und]
+22.0 +8.4 42 +23 +24 комфорт 1013.4 906.5
13 15.09 СВ 5 20 км 8/4 1000 м
[Cu med, cong Ac und]
+22.2 +8.2 41 +23 +25 комфорт 1013.4 906.4
14 15.09 СВ 6 20 км 4/1 1000 м
[Cu hum Ac trans]
+22.3 +7.9 40 +23 +24 комфорт 1013.3 906.2
15 15.09 СВ 6
{12}
20 км 6/3 1020 м
[Cu hum Ac trans]
+21.1 +7.9 43 +22 +22 комфорт 1014.2 906.7
16 15.09 СВ 5 20 км 6/4 1000 м
[Cu med, cong Ac und]
+20.2 +6.4 41 +21 +21 комфорт 1014.7 906.9
17 15.09 СВ 4 20 км 5/1 1000 м
[Cu hum Ac trans]
+19.7 +6.0 41 +20 +20 1015.0 907.4
18 15.09 СВ 4
{12}
20 км 5/1 1050 м
[Cu hum Ac trans]
+17.9 +7.3 50 +18 +18 1015.3 907.6 +23.0
06 16.09 СЗ 3
{8}
20 км 8/3 1050 м
[Cu hum Ac trans]
+14.7 +6.8 59 +14 +16 1014.6 906.7 +10.6
07 16.09 С 3 20 км 9/3 1000 м
[Cu hum Ac trans]
+16.1 +7.1 55 +16 +18 1014.6 906.7
08 16.09 С 3 20 км 9/3 1000 м
[Cu hum Ac trans]
+16.3 +7.8 57 +16 +19 1015.0 906.7
09 16.09 С 4
{6}
20 км 9/3 1050 м
[Cu hum Ac trans]
+17.3 +8.2 55 +17 +20 1015.0 906.7
10 16.09 СВ 2 20 км 9/3 1000 м
[Cu hum Ac trans]
+17.7 +8.5 55 +18 +23 1014.8 906.5
11 16.09 С 2 20 км 9/3 1000 м
[Cu hum Ac trans]
+18.5 +8.4 52 +19 +24 1014.4 906.3
12 16.09 СВ 1
{6}
20 км 9/3 1020 м
[Cu hum Ac trans]
+18.7 +9.2 54 +20 +24 1014.2 906.1
13 16.09 СВ 1 20 км 9/3 1000 м
[Cu hum Ac trans]
+18.3 +9.1 55 +20 +22 1014.5 906.0
14 16.09 СВ 1 20 км 9/3 1000 м
[Cu hum Ac trans]
+18.7 +9.2 54 +21 +22 комфорт 1014.0 905.8
15 16.09 С 2
{3}
20 км 9/3 1050 м
[Cu hum Ac trans]
+18.6 +9.1 54 +20 +20 1014.0 906.0
16 16.09 штиль 0 20 км 8/3 1000 м
[Cu hum Ac trans]
+17.8 +9.2 57 +18 +18 1014.0 905.9
17 16.09 ЮВ 1 20 км 8/3 1000 м
[Cu hum Ac trans]
+17.1 +9.5 61 +18 +18 1014.1 905.9
18 16.09 Ю 1
{3}
20 км 8/3 1050 м
[Cu hum Ac trans]
+15.5 +9.4 67 +16 +16 1014.7 906.3 +19.0
06 17.09 З 3
{4}
20 км ясно +16.9 +8.6 58 +17 +21 1015.1 907.1 +14.6
07 17.09 З 2 20 км ясно +19.1 +8.4 50 +21 +29 комфорт 1015.2 907.5
08 17.09 З 2 20 км ясно +20.9 +8.4 45 +23 +35 комфорт 1014.8 907.5
09 17.09 З 1
{3}
20 км 3/3 1200 м
[Cu hum]
+22.9 +8.8 41 +24 +35 комфорт 1014.0 907.2
10 17.09 ЮЗ 1 20 км 5/5 1000 м
[Cu med, cong]
+22.7 +8.7 41 +24 +32 комфорт 1013.9 907.0
11 17.09 ЮВ 3 20 км 4/4 1000 м
[Cu med, cong]
+23.5 +8.2 38 +24 +30 комфорт 1013.4 906.7
12 17.09 СЗ 2
{6}
20 км 3/3 1200 м
[Cu hum]
+26.1 +8.4 33 +26 +34 жарко 1012.3 906.2
13 17.09 В 1 20 км 3/3 1000 м
[Cu hum]
+26.2 +8.5 33 +26 +32 жарко 1012.2 906.1
14 17.09 ЮВ 3 20 км ясно +25.6 +8.0 33 +26 +28 жарко 1012.0 905.8
15 17.09 ЮВ 3
{5}
20 км ясно +24.6 +7.6 34 +25 +25 комфорт 1012.3 905.9
16 17.09 ЮВ 2 20 км ясно +22.6 +7.8 39 +24 +24 комфорт 1012.8 906.0
17 17.09 ЮВ 2 20 км ясно +20.4 +7.7 44 +22 +22 комфорт 1013.7 906.4
18 17.09 ЮВ 2
{5}
20 км ясно +19.2 +8.5 50 +21 +21 комфорт 1014.4 907.1 +26.6
21 17.09 штиль 0 50 км ?/? +24.5 1030.1 1003.5 2
06 18.09 В 1
{3}
20 км ясно +16.7 +8.7 59 +18 +23 1016.1 908.6 +9.0
07 18.09 В 1 20 км ясно +20.6 +9.5 49 +23 +32 комфорт 1016.0 908.7
08 18.09 ЮВ 2 20 км ясно +24.9 +8.7 36 +25 +37 комфорт 1015.3 908.6
09 18.09 ЮВ 2
{4}
20 км ясно +26.3 +6.7 29 +26 +39 жарко 1014.3 908.1
10 18.09 ЮВ 2 20 км ясно +27.3 +3.0 21 +26 +39 жарко 1013.9 907.6
11 18.09 ЮВ 2 20 км ясно +29.3 +3.2 19 +27 +41 жарко 1012.9 907.0
12 18.09 Ю 2
{5}
20 км ясно +29.4 +2.5 18 +27 +37 жарко 1012.6 906.7

 

Местоположение метеостанции Джиханбейли (Турция): широта 38.65 долгота 32.95 высота над уровнем моря 969 м.

В архиве по умолчанию представлена погода в Джиханбейли за последнюю неделю. Архивные данные за месяц целиком и за предыдущие месяцы, начиная с января 2011 года, Вы можете получить, выбрав интересующий диапазон дат из раскрывающегося списка и нажав кнопку "Ввод!".


*Определитесь, кто Вы:
робот инопланетянин человек

Внимание! Время в таблицах - всемирное. Для получения местного времени необходимо прибавить поправку, которая равна 2 ч.

Смотрите также архив погоды в соседних городах и на ближайших метеорологических станциях:

Погода в Конье (Турция) (83 км)
Погода в Аксарае (Турция) (100 км)
Погода в Кыршехире (Турция) (119 км)
Погода в Акшехире (Турция) (137 км)
Погода в Кырыккале (Турция) (142 км)
Погода в Гуверчинлике (Турция) (143 км)
Погода в Анкаре (Турция) (145 км)
Погода в Анкара аэропорту (Турция) (146 км)
Погода в Бейшехире (Турция) (151 км)
Погода в Невшехире (Турция) (154 км)

Пояснения к столбцам:

Ветер - указаны скорость ветра в м/с - средняя за 10 мин, порывы в срок и между сроками (в фигурных скобках) и направление, откуда дует ветер: С - северный, СВ - северо-восточный, В - восточный, ЮВ - юго-восточный, Ю - южный, ЮЗ - юго-западный, З - западный, СЗ - северо-западный.
Видимость - горизонтальная дальность видимости в метрах или километрах. При видимости от 1 до 10 км при отсутствии осадков обычно наблюдается дымка, при ухудшении видимости до 1 км и менее - туман. В сухую погоду видимость может ухудшаться дымом, пылью или мглою.
Явления - указаны атмосферные явления, наблюдавшиеся в срок или в последний час перед сроком; фигурными скобками обозначены явления, наблюдавшиеся между сроками (за 1-3 часа до срока); квадратными скобками обозначены град или гололедные отложения с указанием их диаметра в мм.
Облачность - указаны через наклонную черту общая и нижняя облачность в баллах и высота нижней границы облаков в метрах; квадратными скобками обозначены формы облаков: Ci - перистые, Cs - перисто-слоистые, Cc - перисто-кучевые, Ac - высококучевые, As - высокослоистые, Sc - слоисто-кучевые, Ns - слоисто-дождевые, Cu - кучевые, Cb - кучево-дождевые. Подробнее классификацию облаков см. в Атласе облаков (PDF).
T - Температура воздуха - температура, измеренная на высоте 2 м над землей.
Td - Температура точки росы - температура, при понижении до которой содержащийся в воздухе водяной пар достигнет насыщения.
f - Относительная влажность воздуха - влажноcть воздуха, измеренная на высоте 2 м над землей.
Te - Эффективная температура - температура, которую ощущает одетый по сезону человек в тени. Характеристика душности погоды. При расчете учитывается влияние влажности воздуха и скорости ветра на теплоощущения человека.
Tes - Эффективная температура на солнце - температура, которую ощущает человек, с поправкой на солнечный нагрев. Характеристика знойности погоды. Зависит от высоты солнца над горизонтом, облачности и скорости ветра. Ночью, в пасмурную погоду, а также при ветре 12 м/с и более поправка равна нулю.
P - Атмосферное давление - приведенное к уровню моря атмосферное давление.
Po - Атмосферное давление - измеренное на уровне метеостанции атмосферное давление.
Tmin - Минимальная температура - минимум температуры воздуха на высоте 2 м над землей.
Tmax - Максимальная температура - максимум температуры воздуха на высоте 2 м над землей.
R - Количество осадков - Количество выпавших осадков за период времени, мм. При наведении курсора мыши на число - период времени, за который выпало указанное количество осадков.
R24 - Количество осадков - Количество выпавших осадков за 24 часа, мм.
S - Снежный покров - Высота снежного покрова, см. При наведении курсора мыши на число - состояние снежного покрова и степень покрытия местности в баллах.